Location: Newark
(45.0500°N, 41.9667°E)
Time: 08:07:07
(UTC+00:00)

Starlink (trailer) - Pass Details

Date: 31 July 2019
Orbit: 549 x 550 km, 53.0° (Epoch: 18 August)

Event Time Altitude Azimuth Distance (km) Brightness Sun altitude
Rises 17:06:42 0° 194° (SSW) 2,702 7.0 -4.8°
Reaches altitude 10° 17:09:25 10° 176° (S) 1,813 5.9 -5.2°
Maximum altitude 17:12:20 19° 130° (SE) 1,348 5.0 -5.7°
Drops below altitude 10° 17:15:15 10° 85° (E) 1,822 5.8 -6.1°
Sets 17:17:59 0° 68° (ENE) 2,720 6.8 -6.5°
